DW8293 Weather Reports


Display with metric or nautical units.
time (UTC)temp
F
wind
direction
speed
MPH
gust
MPH
rain 1hr
in
rain 24hr
in
rain mn
in
humidity
%
barometer
mb
20260901172703 67 112 0.0 2.0 0.00 0.00 0.00 59 1003.5
20260901171803 68 112 0.0 2.0 0.00 0.00 0.00 56 1003.8
20260901170904 69 107 0.0 2.0 0.00 0.00 0.00 51 1003.8
20260901170025 71 112 0.0 2.0 0.00 0.00 0.00 50 1003.9
20260901165404 73 0 0.0 0.0 0.00 0.00 0.00 43 1003.8
20260901164526 73 90 0.0 2.0 0.00 0.00 0.00 44 1003.7
20260901163603 72 90 0.0 2.0 0.00 0.00 0.00 46 1003.9
20260901162726 71 90 1.0 2.0 0.00 0.00 0.00 47 1003.8
20260901161805 73 96 1.0 4.0 0.00 0.00 0.00 44 1003.9
20260901160903 72 90 1.0 4.0 0.00 0.00 0.00 45 1003.8
20260901160003 71 90 2.0 4.0 0.00 0.00 0.00 45 1003.8
20260901155406 72 93 2.0 4.0 0.00 0.00 0.00 45 1003.9
20260901154503 71 108 2.0 4.0 0.00 0.00 0.00 44 1003.8
20260901153603 72 113 2.0 4.0 0.00 0.00 0.00 42 1003.9
20260901152724 73 25 2.0 4.0 0.00 0.00 0.00 41 1003.8
20260901151803 74 286 1.0 4.0 0.00 0.00 0.00 39 1003.8
20260901150903 75 309 3.0 4.0 0.00 0.00 0.00 38 1004.1
20260901150003 76 328 1.0 4.0 0.00 0.00 0.00 37 1004.0
20260901145404 76 7 2.0 4.0 0.00 0.00 0.00 37 1003.9
20260901144503 76 9 2.0 4.0 0.00 0.00 0.00 37 1003.8
20260901143603 75 329 1.0 6.0 0.00 0.00 0.00 38 1003.9
20260901142704 76 270 3.0 4.0 0.00 0.00 0.00 36 1003.9
20260901141803 74 292 3.0 6.0 0.00 0.00 0.00 40 1004.0
20260901140903 74 311 4.0 6.0 0.00 0.00 0.00 39 1004.1
20260901140005 74 248 4.0 7.0 0.00 0.00 0.00 40 1004.1
20260901135403 72 222 3.0 7.0 0.00 0.00 0.00 42 1004.1
20260901134505 73 258 3.0 6.0 0.00 0.00 0.00 41 1004.3
20260901133605 74 251 2.0 7.0 0.00 0.00 0.00 43 1004.2
20260901132703 74 286 1.0 6.0 0.00 0.00 0.00 41 1004.2
20260901131803 76 260 1.0 4.0 0.00 0.00 0.00 40 1004.2
20260901130924 75 270 3.0 6.0 0.00 0.00 0.00 41 1004.5
20260901130003 72 281 3.0 7.0 0.00 0.00 0.00 43 1004.2
20260901125403 74 283 3.0 4.0 0.00 0.00 0.00 42 1004.2
20260901124504 74 250 2.0 6.0 0.00 0.00 0.00 45 1004.2
20260901123604 74 199 3.0 4.0 0.00 0.00 0.00 45 1004.3
20260901122705 73 196 2.0 6.0 0.00 0.00 0.00 45 1004.4
20260901121803 71 100 2.0 4.0 0.00 0.00 0.00 48 1004.2
20260901120903 70 99 1.0 6.0 0.00 0.00 0.00 50 1004.3
20260901120004 70 96 2.0 6.0 0.00 0.00 0.00 50 1004.4
20260901115405 71 95 0.0 6.0 0.00 0.00 0.00 50 1004.4
20260901114503 70 103 2.0 4.0 0.00 0.00 0.00 54 1004.3
20260901113605 71 84 2.0 4.0 0.00 0.00 0.00 52 1004.4
20260901112703 69 94 2.0 8.0 0.00 0.00 0.00 54 1004.5
20260901111824 68 82 3.0 8.0 0.00 0.00 0.00 57 1004.4
20260901110903 70 343 2.0 2.0 0.00 0.00 0.00 55 1004.5
20260901110024 69 342 2.0 4.0 0.00 0.00 0.00 54 1004.6
20260901105405 69 39 1.0 4.0 0.00 0.00 0.00 53 1004.3
20260901104503 70 351 2.0 4.0 0.00 0.00 0.00 52 1004.4
20260901103605 68 296 3.0 4.0 0.00 0.00 0.00 55 1004.3
20260901102703 69 323 2.0 4.0 0.00 0.00 0.00 54 1004.5
20260901101824 70 338 1.0 4.0 0.00 0.00 0.00 53 1004.5
20260901100903 68 326 3.0 4.0 0.00 0.00 0.00 57 1004.3
20260901100003 69 3 2.0 4.0 0.00 0.00 0.00 57 1004.1
20260901095405 67 322 2.0 6.0 0.00 0.00 0.00 60 1004.2
20260901094503 65 287 1.0 6.0 0.00 0.00 0.00 64 1004.2
20260901093605 66 291 2.0 4.0 0.00 0.00 0.00 64 1004.2
20260901092705 66 331 0.0 4.0 0.00 0.00 0.00 63 1004.3
20260901091803 65 337 2.0 6.0 0.00 0.00 0.00 64 1004.3
20260901090903 66 356 1.0 4.0 0.00 0.00 0.00 63 1004.0
20260901090003 65 336 1.0 6.0 0.00 0.00 0.00 67 1004.3
20260901085403 64 353 2.0 6.0 0.00 0.00 0.00 68 1004.3
20260901084503 66 4 2.0 4.0 0.00 0.00 0.00 65 1004.3
20260901083605 65 36 2.0 4.0 0.00 0.00 0.00 69 1004.0
20260901082703 65 43 2.0 2.0 0.00 0.00 0.00 68 1004.2
20260901081803 64 7 0.0 4.0 0.00 0.00 0.00 70 1004.0
20260901080903 62 349 2.0 4.0 0.00 0.00 0.00 74 1004.0
20260901080003 63 29 2.0 4.0 0.00 0.00 0.00 73 1004.1
20260901075405 62 31 1.0 4.0 0.00 0.00 0.00 75 1004.1
20260901074503 61 22 1.0 4.0 0.00 0.00 0.00 76 1004.1
20260901073624 61 33 2.0 4.0 0.00 0.00 0.00 77 1004.2
20260901072703 60 351 1.0 6.0 0.00 0.00 0.00 79 1004.1
20260901071824 60 342 1.0 7.0 0.00 0.00 0.00 80 1004.0
20260901070903 60 342 2.0 7.0 0.00 0.00 0.00 81 1004.1
20260901070026 59 347 2.0 6.0 0.00 0.00 0.00 82 1004.0
20260901065403 59 338 2.0 6.0 0.00 0.00 0.00 83 1004.0
20260901064524 58 314 2.0 6.0 0.00 0.00 0.00 86 1003.8
20260901063624 57 319 4.0 7.0 0.00 0.00 0.00 88 1004.0
20260901062703 57 314 4.0 7.0 0.00 0.00 0.00 89 1003.7
20260901061803 58 313 3.0 7.0 0.00 0.00 0.00 89 1003.8
20260901060903 57 303 3.0 4.0 0.00 0.00 0.00 91 1003.9
20260901060003 57 292 3.0 4.0 0.00 0.00 0.00 92 1003.7
20260901055403 56 292 2.0 4.0 0.00 0.00 0.00 94 1003.8
20260901054524 56 292 2.0 4.0 0.00 0.00 0.00 95 1003.6
20260901053603 56 292 2.0 4.0 0.00 0.00 0.00 95 1003.6
20260901052724 56 292 1.0 2.0 0.00 0.00 0.00 96 1003.6
20260901051803 56 292 1.0 4.0 0.00 0.00 0.00 96 1003.8
20260901050903 56 292 2.0 4.0 0.00 0.00 0.00 97 1003.6
20260901050003 56 287 1.0 4.0 0.00 0.00 0.00 98 1003.5
20260901045403 56 276 2.0 4.0 0.00 0.00 0.00 99 1003.3
20260901044505 56 270 1.0 2.0 0.00 0.00 0.00 99 1003.2
20260901043605 55 0 0.0 0.0 0.00 0.00 0.00 99 1003.4
20260901042705 55 0 0.0 0.0 0.00 0.00 0.00 99 1003.3
20260901041803 55 0 0.0 0.0 0.00 0.00 0.00 99 1003.1
20260901040905 55 270 0.0 2.0 0.00 0.00 0.00 99 1003.2
20260901040026 55 270 0.0 2.0 0.00 0.00 0.00 99 1003.2
20260901035403 55 270 0.0 2.0 0.00 0.00 0.00 99 1003.3
20260901034503 55 270 0.0 2.0 0.00 0.00 0.00 99 1002.9
20260901033603 54 270 0.0 2.0 0.00 0.00 0.00 99 1003.1
20260901032724 55 270 0.0 2.0 0.00 0.00 0.00 99 1002.9
20260901031803 55 0 0.0 0.0 0.00 0.00 0.00 99 1003.0
20260901030924 55 0 0.0 0.0 0.00 0.00 0.00 99 1003.0
20260901030003 55 0 0.0 0.0 0.00 0.00 0.00 99 1003.2
20260901025405 55 0 0.0 0.0 0.00 0.00 0.00 98 1003.0
20260901024503 55 270 0.0 2.0 0.00 0.00 0.00 98 1002.5
20260901023605 55 270 0.0 2.0 0.00 0.00 0.00 98 1002.9
20260901022705 56 251 0.0 4.0 0.00 0.00 0.00 97 1002.9
20260901021803 56 202 1.0 2.0 0.00 0.00 0.00 98 1002.7
20260901020903 55 0 0.0 0.0 0.00 0.00 0.00 98 1002.8
20260901020003 55 0 0.0 0.0 0.00 0.00 0.00 98 1002.6
20260901015426 55 0 0.0 0.0 0.00 0.00 0.00 98 1002.5
20260901014503 55 202 0.0 2.0 0.00 0.00 0.00 98 1002.7
20260901013627 55 202 0.0 2.0 0.00 0.00 0.00 98 1002.6
20260901012703 56 184 2.0 2.0 0.00 0.00 0.00 98 1002.5
20260901011803 55 157 1.0 2.0 0.00 0.01 0.00 99 1002.3
20260901010903 55 157 0.0 2.0 0.00 0.02 0.00 99 1002.3
20260901010003 55 0 0.0 0.0 0.00 0.04 0.00 99 1002.5
20260901005424 55 0 0.0 0.0 0.00 0.05 0.00 99 1002.4
20260901004503 55 0 0.0 0.0 0.00 0.06 0.00 99 1002.4
20260901003603 55 146 0.0 2.0 0.00 0.07 0.00 99 1002.6
20260901002705 55 151 1.0 2.0 0.00 0.07 0.00 99 1002.6
20260901001805 54 157 1.0 2.0 0.00 0.08 0.00 99 1002.3
20260901000924 54 156 2.0 2.0 0.00 0.09 0.00 99 1002.4
20260901000005 53 154 0.0 2.0 0.00 0.11 0.00 99 1002.4
20260831235403 54 202 2.0 2.0 0.00 0.11 0.00 99 1002.5
20260831234503 54 0 0.0 0.0 0.00 0.11 0.00 99 1002.3
20260831233626 54 0 0.0 0.0 0.00 0.11 0.00 98 1002.2
20260831232703 54 202 0.0 2.0 0.00 0.11 0.00 98 1002.0
20260831231803 55 202 1.0 2.0 0.00 0.11 0.00 98 1002.1
20260831230904 55 0 0.0 0.0 0.00 0.11 0.00 97 1002.1
20260831230003 55 202 0.0 2.0 0.00 0.11 0.00 96 1002.3
20260831225427 56 202 0.0 2.0 0.00 0.11 0.00 96 1002.2
20260831224524 56 202 1.0 4.0 0.00 0.11 0.00 96 1002.2
20260831223624 56 202 2.0 4.0 0.00 0.11 0.00 97 1002.1
20260831222703 56 170 2.0 2.0 0.00 0.11 0.00 97 1002.6
20260831221824 56 157 1.0 2.0 0.00 0.11 0.00 98 1002.5
20260831220903 55 0 0.0 0.0 0.00 0.11 0.00 98 1002.3
20260831220005 55 0 0.0 0.0 0.00 0.11 0.00 98 1002.3
20260831215403 54 0 0.0 0.0 0.00 0.11 0.11 98 1002.4
20260831214503 55 0 0.0 0.0 0.00 0.11 0.11 98 1002.2
20260831213624 55 157 0.0 2.0 0.00 0.11 0.11 98 1002.4
20260831212703 55 157 0.0 2.0 0.00 0.11 0.11 97 1002.2
20260831211803 55 157 2.0 2.0 0.00 0.11 0.11 97 1002.1
20260831210925 55 157 0.0 2.0 0.00 0.11 0.11 96 1001.9
20260831210003 56 154 0.0 2.0 0.00 0.11 0.11 96 1002.0
20260831205426 56 157 0.0 2.0 0.00 0.11 0.11 96 1002.0
20260831204505 56 157 0.0 2.0 0.00 0.11 0.11 95 1002.1
20260831203605 56 167 0.0 2.0 0.00 0.11 0.11 94 1002.0
20260831202724 57 180 0.0 2.0 0.00 0.11 0.11 94 1002.0
20260831201803 57 180 0.0 2.0 0.00 0.11 0.11 94 1002.1
20260831200905 57 172 0.0 2.0 0.00 0.11 0.11 94 1002.0
20260831200026 57 180 0.0 2.0 0.00 0.11 0.11 93 1001.9
20260831195403 58 180 0.0 2.0 0.00 0.11 0.11 92 1001.9
20260831194503 58 180 1.0 2.0 0.00 0.11 0.11 91 1001.9
20260831193604 58 180 0.0 2.0 0.00 0.11 0.11 92 1001.9
20260831192704 58 180 1.0 2.0 0.00 0.11 0.11 91 1001.9
20260831191803 58 160 2.0 2.0 0.00 0.11 0.11 90 1002.2
20260831190905 58 145 0.0 2.0 0.00 0.11 0.11 90 1002.0
20260831190003 58 112 0.0 2.0 0.00 0.11 0.11 89 1002.2
20260831185403 59 119 1.0 2.0 0.00 0.11 0.11 88 1002.1
20260831184503 59 148 0.0 2.0 0.00 0.11 0.11 88 1002.1
20260831183605 60 166 0.0 2.0 0.00 0.11 0.11 86 1002.0
20260831182703 60 179 1.0 2.0 0.00 0.11 0.11 85 1002.1
20260831181803 61 199 2.0 4.0 0.00 0.11 0.11 84 1001.9
20260831180903 61 194 2.0 4.0 0.00 0.11 0.11 83 1001.6
20260831180003 61 191 2.0 6.0 0.00 0.11 0.11 82 1001.6
20260831175403 61 185 3.0 4.0 0.00 0.11 0.11 82 1001.7
20260831174503 62 155 2.0 6.0 0.00 0.11 0.11 81 1001.8
20260831173603 62 211 2.0 6.0 0.00 0.11 0.11 80 1001.7